Location: Astronomy Adventures Observing Site
(35.3995°N, 106.1279°W)
Time: 06:22:03
(UTC-06:00)

Hubble Space Telescope - Pass Details

Date: 28 January 2022
Orbit: 533 x 537 km, 28.5° (Epoch: 17 May)

Event Time Altitude Azimuth Distance (km) Brightness Sun altitude
Rises 19:37:43 0° 221° (SW) 2,658 5.0 -26.4°
Reaches altitude 10° 19:40:41 10° 199° (SSW) 1,772 3.6 -27.0°
Enters shadow 19:41:13 12° 193° (SSW) 1,654 3.4 -27.1°
